GVSU Homecoming 5K Run/Walk

back to results

Oct. 17, 2009

GVSU Homecoming 5K Run/Walk
Allendale, MI

Grand Valley State University HY-TEK's Meet Manager
Laker Homecoming 5K - 10/17/2009
Grand Valley State University
Allendale, Michigan
Last Completed Event

Mixed 5k Run CC
Comp# Name Team Time Points
=========================================================================================
1 1784 Fujioka, Nathan M25 Gvsu Student 15:55.40
2 1987 Prescott, Paul M20 Gvsu Student 16:03.60
3 1975 Zywicki, Ron M48 Runner 16:05.00
4 1851 Showerman, Brent M19 Gvsu Student 16:08.70
5 1962 Lawrence, Patrick M20 Gvsu Student 16:29.10
6 1783 Fujioka, Jeffrey M25 Gvsu Student 16:29.40
7 1757 DeKarne, Max M18 Gvsu Running Club 16:30.80
8 1970 Theoret, Mike M16 Runner 16:48.10
9 1744 Taylor, Chelsea M20 Gvsu Running Club 16:53.20
10 1995 DeWolf, Paul M21 Gvsu Student 17:08.50
11 1943 Peterson, Erik M19 Gvsu Student 17:09.50
12 2002 James-Heer, Craig M35 Grand Valley Alumni 17:36.40
13 1807 Miller, Stephen M19 Gvsu Student 17:41.20
14 1998 Deja, Jon M22 Gvsu Student 17:42.80
15 1973 Flannery, Kenneth M49 Runner 17:43.60
16 1792 Collins, John M25 Grand Valley Alumni 17:59.10
17 1802 Tenkate, Laurens M48 Runner 18:06.10
18 1980 Davis, John M18 Gvsu Student 18:09.30
19 1869 Nash, Hank M56 Runner 18:12.50
20 1746 Nodge, Eric M19 Gvsu Running Club 18:38.90
21 1790 Keim, Michael M19 Gvsu Student 18:54.60
22 1877 Holland, James M29 Faculty/Staff Grand Valle 18:58.20
23 1752 Barron, Matt M20 Gvsu Running Club 18:58.90
24 1736 Smith, Kendra W20 Gvsu Running Club 19:01.60
25 1753 Schuurman, Jacob M19 Gvsu Running Club 19:14.30
26 1750 Springli, Sam M20 Gvsu Running Club 19:20.90
27 1760 Tobias, Don M18 Gvsu Running Club 19:33.30
28 1808 Trushkowski, Mark M19 Gvsu Student 19:40.60
29 1738 Szuch, Randy M20 Gvsu Running Club 19:40.90
30 1745 Verellen, Michele W19 Gvsu Running Club 19:46.50
31 1762 Beach, Derek M19 Gvsu Running Club 19:52.10
32 1988 Hansman, Fred M45 Runner 19:57.30
33 1963 Gibbons, Kelly W23 Gvsu Student 19:57.70
34 1782 Stempien, Julie W45 Runner 19:58.50
35 1957 Zimmerman, Ken M55 Grand Valley Alumni 19:58.80
36 1766 Vandervelde, Katie W18 Gvsu Running Club 20:00.10
37 1741 Koltonow, Elizabeth W18 Gvsu Running Club 20:00.40
38 1748 Goss, Alison W22 Gvsu Running Club 20:10.40
39 1976 Schlutt, Audrey W19 Gvsu Student 20:10.60
40 1770 Rymond, Katie W20 Gvsu Running Club 20:16.80
41 1834 Fisher, Kevin M19 Gvsu Student 20:22.60
42 1958 Castillo, Modesto M40 Grand Valley Alumni 20:23.70
43 1805 Andreadis, Lou M36 Faculty/Staff Grand Valle 20:25.20
44 1754 Grenn, Richard M18 Gvsu Running Club 20:32.50
45 1831 Zebell, Sarah W21 Gvsu Student 20:38.30
46 1818 Frantz, Max M22 Grand Valley Alumni 20:44.00
47 1866 Hamilton, Edward M34 Faculty/Staff Grand Valle 20:46.20
48 1768 Schneider, Tyler M18 Gvsu Running Club 20:48.40
49 1961 Stevens, Eric M21 Gvsu Student 20:49.40
50 1897 Haiderer, Laura W20 Gvsu Student 20:51.80
51 1749 Hein, Gretchen W20 Gvsu Running Club 20:56.30
52 1804 Maslar, Laura W52 Runner 20:56.60
53 1819 Redder, Loren M63 Runner 21:02.70
54 1803 LaPorte, Tim M62 Runner 21:04.20
55 1781 Fry, Andy M24 Gvsu Student 21:08.00
56 1810 Reimink, Richard M51 Runner 21:09.50
57 1774 Woodhull, Josh M18 Gvsu Running Club 21:14.00
58 1942 Hamel, Zach M26 Gvsu Student 21:14.30
59 1841 Perry, Alex M21 Gvsu Student 21:35.90
60 1992 Simaz, Bill M48 Grand Valley Alumni 21:37.70
61 1993 Adams, Jen W26 Runner 21:51.70
62 1769 Fettig, Dylan M18 Gvsu Running Club 21:53.40
63 1935 Toth, Spencer M Gvsu Student 21:54.00
64 1974 Jackson, Kelli W12 Runner 22:10.40
65 1903 Chudzinski, Matthew M19 Runner 22:17.70
66 1796 Britton, Matt M64 Runner 22:20.20
67 1809 Kirby, Andrew M20 Gvsu Student 22:20.90
68 1960 Snider, Don M56 Runner 22:25.10
69 1985 Davis, Evans M18 Gvsu Student 22:34.50
70 1959 Liversedge, Nancy W53 Runner 22:37.60
71 1772 deVriendt, Erika W19 Gvsu Running Club 22:45.70
72 2012 Heckman, Karl M19 Gvsu Student 22:46.10
73 1756 Ihrig, Adam M21 Gvsu Running Club 22:46.30
74 1813 Reimink, Leslie W51 Runner 22:49.10
75 1930 Appleyard, Scott M41 Runner 22:51.40
76 1836 Lee, Deokshin M26 Gvsu Student 22:57.40
77 1789 Zebell, Dennis M51 Runner 22:58.50
78 1814 Penland, Brenda W43 Grand Valley Alumni 23:06.20
79 1764 Fachan, Renah W18 Gvsu Running Club 23:17.00
80 1755 Singletary, Kristen W18 Gvsu Running Club 23:21.90
81 1763 McFawn, Brian M18 Gvsu Running Club 23:22.20
82 1759 Bush, Amy W18 Gvsu Running Club 23:22.50
83 1751 Ezinga, Ross M21 Gvsu Running Club 23:28.10
84 1737 Rothermel, Tauri W20 Gvsu Running Club 23:31.70
85 1892 Schafer, Kevin M33 Grand Valley Alumni 23:33.40
86 1788 Tubergen, Josh M30 Runner 23:36.50
87 1968 Bridges, Derek M18 Gvsu Student 23:37.90
88 1996 Garte, Greg M47 Runner 23:55.10
89 1801 Tenkate, Jan W48 Runner 24:01.10
90 1955 Kovacs, Joe M46 Unattached 24:02.50
91 1785 Makela, Bill M24 Gvsu Student 24:17.90
92 1806 Lucius, Garron M24 Grand Valley Alumni 24:18.20
93 1989 Fettig, Quentin M13 Runner 24:23.70
94 1899 Aman, Lindsay W20 Gvsu Student 24:29.70
95 1895 Chauv, Kyle M39 Gvsu Student 24:30.40
96 1881 Rhodes, Jessie W18 Gvsu Student 24:30.60
97 1857 Garner, Cori W50 Runner 24:31.10
98 1969 Botticher, Jamie W19 Runner 24:52.90
99 1954 Gerpheide, Kathrin W16 Unattached 24:54.90
100 1902 McCready, Mark M44 Faculty/Staff Grand Valle 24:57.80
101 1826 Whitehead, Peter M28 Faculty/Staff Grand Valle 25:02.50
102 1765 Coffey, Marjorie W17 Gvsu Running Club 25:11.00
103 1839 Hoekzema, Abigail W22 Gvsu Student 25:11.20
104 1758 Luke, Carly W18 Gvsu Running Club 25:19.00
105 1863 Denike, Diane W45 Grand Valley Alumni 25:26.30
106 1889 Mills, Kelly W21 Gvsu Student 25:40.10
107 1933 Skinner, Shelby W Gvsu Student 25:41.80
108 1773 Matez, Lanae W19 Gvsu Running Club 25:52.10
109 1997 Gorthe, Chad M21 Gvsu Student 25:54.40
110 1981 Hinken, Charlie M11 Runner 26:03.00
111 1984 Hinken, John M40 Runner 26:03.70
112 1828 Sullwold, Jamie W22 Gvsu Student 26:06.10
113 1875 Ridley, Jacqueline W23 Gvsu Student 26:08.10
114 1964 Springli, Bob M49 Runner 26:21.80
115 1787 Victory, Jerry M49 Runner 26:43.60
116 2000 Dykhouse, Larry M54 Grand Valley Alumni 26:50.10
117 1799 Niewenhvis, Anna W25 Grand Valley Alumni 26:51.70
118 1825 Koufax, Sandy W23 Gvsu Student 26:54.20
119 1776 Krupansky, Lynn W51 Faculty/Staff Grand Valle 26:54.70
120 1837 Plaisier, Harold M75 Runner 26:56.50
121 1882 Appleyard, Jordan W Gvsu Student 26:59.10
122 1778 Renkes, Thomas M21 Gvsu Student 26:59.50
123 1777 Pierce, Sarah W21 Gvsu Student 27:03.10
124 1965 Ford, Bob M54 Runner 27:04.50
125 1966 Hunter, Brenna W14 Runner 27:45.20
126 1830 Zelek, Eddie M10 Runner 27:47.20
127 1829 Zelek, Denny M53 Grand Valley Alumni 27:50.40
128 1941 Miedema, Tarra W30 Grand Valley Alumni 27:52.70
129 1956 Fahnestock, Alexis W28 Unattached 27:53.40
130 1860 Holland, Deborah W29 Faculty/Staff Grand Valle 27:53.70
131 1871 Cook, Holly W21 Gvsu Student 28:07.10
132 1950 d, we M Grand Valley Alumni 28:07.40
133 1906 Rehkopf, Megan W30 Runner 28:08.00
134 1845 McConnell, Andrea W18 Gvsu Student 28:09.20
135 1821 Burton, Sadie W32 Gvsu Student 28:19.50
136 1761 VanderSys, Krystal W18 Gvsu Running Club 28:36.60
137 1775 Labonte, Laura W18 Gvsu Running Club 28:57.30
138 1859 Dobbs, Danielle W Gvsu Student 28:57.70
139 1982 Hinken, Samantha W8 Runner 28:58.10
140 1983 Hinken, Melissa W41 Runner 28:58.50
141 1870 Bullock, Hannah W22 Gvsu Student 29:09.00
142 2010 Willabee, Barb W22 Gvsu Student 29:09.20
143 1864 Barnes, Dottie W46 Faculty/Staff Grand Valle 29:16.90
144 1922 Tepper, Roberta W48 Runner 29:17.20
145 1905 Collins, Megan W22 Gvsu Student 29:19.90
146 1824 Plue, Lauren W22 Faculty/Staff Grand Valle 29:20.20
147 1934 Furney, Sierra W19 Gvsu Student 29:37.60
148 1843 Blome, Andrea W20 Gvsu Student 29:39.80
149 1929 James, Sarah W22 Gvsu Student 29:40.10
150 1937 Furney, Starla W48 Runner 29:44.60
151 1907 Albright, Melissa W38 Grand Valley Alumni 29:49.10
152 1815 Woodcock, Patrick M46 Runner 30:01.10
153 1771 Brian, Julia W18 Gvsu Running Club 30:01.30
154 1953 Jones, John M70 Unattached 30:33.50
155 1994 Yankee, Allyson W18 Gvsu Student 30:34.00
156 1791 Smith-Martin, Tracy W39 Grand Valley Alumni 30:36.80
157 1898 Sullivan, Leena W60 Runner 30:38.50
158 1952 Vandenberg, Peggy W61 Grand Valley Alumni 30:41.30
159 1887 Tippett, Katie W Gvsu Student 30:43.10
160 1885 Dysert, Kameron M22 Gvsu Student 30:46.50
161 1849 Schreur, Ashlee W20 Runner 30:47.00
162 1967 Hunters, Brittany W23 Grand Valley Alumni 30:56.50
163 1779 Noggle, Sharon W34 Grand Valley Alumni 31:05.20
164 1780 Noggle, Barret M29 Runner 31:05.60
165 1873 Stratton, Holly W20 Gvsu Student 31:07.80
166 2013 Ambers, Laura W20 Gvsu Student 31:22.60
167 2009 Hurley, Leslie W22 Gvsu Student 31:30.70
168 1911 Clancy, Michelle W21 Gvsu Student 31:31.00
169 1739 VanHouten, Melanie W18 Gvsu Running Club 31:33.90
170 1924 Mulder, Roger M69 Runner 31:37.60
171 1913 Christians, Molly W26 Grand Valley Alumni 31:48.00
172 1880 Jackiewicz, Jessica W20 Gvsu Student 31:55.80
173 2008 Booth, Andrew M33 Faculty/Staff Grand Valle 32:43.50
174 2007 Booth, Kristy W31 Grand Valley Alumni 32:43.80
175 1786 Rife, Ashley W19 Gvsu Student 32:53.10
176 1884 Brindley, Kaitlin W18 Gvsu Student 32:53.30
177 1886 Wojtas, Karla W38 Runner 32:56.20
178 1904 West, Mckenzie W Runner 32:56.40
179 1844 Freude, Andrea W30 Faculty/Staff Grand Valle 33:06.00
180 1823 Kiste, Andrew M21 Gvsu Student 33:17.00
181 1822 Kiste, Luanne W47 Runner 33:25.60
182 1928 Labra, Sana W22 Gvsu Student 34:32.30
183 1986 Pokora, Danielle W20 Gvsu Student 34:34.40
184 1820 Brackbill, Brittany W23 Gvsu Student 34:39.70
185 1855 Garvey, Chelsea W22 Gvsu Student 34:56.10
186 1931 Regnerus, Shana W19 Runner 35:03.00
187 1951 Burns, Kenneth M74 Grand Valley Alumni 35:08.20
188 1846 Spencer, Andrea W22 Gvsu Student 35:31.90
189 1835 Byars, Marie W41 Grand Valley Alumni 35:45.10
190 1872 Rapin, Holly W31 Grand Valley Alumni 36:33.40
191 1909 Decker, Michael M42 Grand Valley Alumni 37:03.90
192 1833 Borowski, Glenda W66 Runner 39:40.80
193 1932 Rumohr, Shannon W20 Gvsu Student 40:34.80
194 1853 Bennett, Carlee W20 Gvsu Student 40:35.80
195 1936 Clabough, Staci W18 Gvsu Student 40:36.50
196 1817 Gruber, Chelsea W24 Grand Valley Alumni 40:40.10
197 1874 Schrot, Jacob M26 Runner 40:40.50
198 2014 Zemba, Brian M26 Runner 41:08.70
199 2015 Long, Vicki W50 Grand Valley Alumni 41:09.50
200 1876 Schafer, Jacqueline W31 Grand Valley Alumni 43:21.70
201 2016 Swanson, Karel W53 Faculty/Staff Grand Valle 43:37.70
202 2017 Swanson, Jeff M55 Faculty/Staff Grand Valle 43:38.80
203 1878 Thelen, Jeff M35 Grand Valley Alumni 44:52.30
204 1848 Thelen, Annukka W32 Faculty/Staff Grand Valle 46:20.30
205 1832 Borowski, Florian M68 Runner 46:23.30
206 1793 Mulder, Kim W23 Runner 47:17.10
207 1919 Nagy, Rebekah W18 Gvsu Student 47:17.30
208 1940 Watkins, Sydney W18 Gvsu Student 47:17.70
209 1850 Walton, Brandee W18 Gvsu Student 47:37.50
210 2011 York, Geri W51 Runner 47:55.90
211 1921 York, Robert M66 Grand Valley Alumni 47:56.60
212 2005 Kinney, Pam W Runner 47:57.50
213 2006 Kinney, John J. M Runner 48:45.60
214 2004 Kinney, Erin W20 Gvsu Student 48:51.50
215 1890 Murray, Kelly W Gvsu Student 48:52.40
216 1856 Thoroman, Christina W18 Gvsu Student 49:06.50
217 2003 Kinney, John M Runner 49:30.60
218 1854 Viilo, Casey W18 Gvsu Student 49:30.80
219 1999 Silcocu, Jannessa W18 Gvsu Student 50:54.00
220 1868 Roberts, Erica W18 Gvsu Student 50:54.50
221 1978 Grootendorst, Hannah W18 Gvsu Student 52:14.60
222 1979 Putvin, Mara W21 Gvsu Student 56:23.60
223 1971 Paul, Sarah W24 Grand Valley Alumni 56:23.90
224 1972 Nichols, Katie W23 Grand Valley Alumni 57:21.40
225 1795 Wierenga, Travis M27 Runner 57:21.80
226 1797 Ames, Nick M23 Grand Valley Alumni 57:22.10
227 1798 Ames, Colleen W22 Grand Valley Alumni 57:22.10